Location: New Frontier Mobile Home Park
(32.8448°N, 116.9675°W)
Time: 21:20:32
(UTC+00:00)

Cosmos 1315 Rocket - Pass Details

Date: 14 July 2020
Orbit: 530 x 568 km, 81.2° (Epoch: 13 August)

Event Time Altitude Azimuth Distance (km) Brightness Sun altitude
Rises 04:10:31 0° 1° (N) 2,767 6.9 -13.8°
Reaches altitude 10° 04:12:49 10° 10° (N) 1,869 5.9 -14.2°
Maximum altitude 04:16:41 38° 79° (ENE) 880 3.5 -14.8°
Enters shadow 04:18:14 27° 124° (SE) 1,103 3.7 -15.1°
